• In Slovakia
  • List of Countries
  • For 7 days
  • Water Temperature
  • Satellite Maps
  • Weather Map
  • Weather Widgets
  • user-avatar
    Login

    Hourly Weather Stupava

    Today, 20 May, Sunday

    Time Temperature Precipitation Wind Pressure Humidity
    00:00 +12°C° 0 mm 2 mps 748 mmHg 84%
    01:00 +11°C° 0 mm 3 mps 748 mmHg 84%
    02:00 +10°C° 0 mm 3 mps 749 mmHg 85%
    03:00 +10°C° 0 mm 2 mps 749 mmHg 86%
    04:00 +10°C° 0 mm 2 mps 749 mmHg 87%
    05:00 +12°C° 0 mm 2 mps 749 mmHg 84%
    06:00 +13°C° 0 mm 2 mps 749 mmHg 81%
    07:00 +15°C° 0 mm 2 mps 749 mmHg 76%
    08:00 +16°C° 0 mm 2 mps 749 mmHg 71%
    09:00 +18°C° 0 mm 2 mps 749 mmHg 67%
    10:00 +20°C° 0 mm 2 mps 749 mmHg 62%
    11:00 +20°C° 0.1 mm 2 mps 749 mmHg 59%
    12:00 +21°C° 0.1 mm 2 mps 749 mmHg 56%
    13:00 +23°C° 0.1 mm 2 mps 749 mmHg 53%
    14:00 +23°C° 0.2 mm 2 mps 749 mmHg 53%
    15:00 +23°C° 0.2 mm 2 mps 748 mmHg 53%
    16:00 +23°C° 0.2 mm 2 mps 748 mmHg 53%
    17:00 +21°C° 0.1 mm 2 mps 748 mmHg 59%
    18:00 +20°C° 0.1 mm 1 mps 748 mmHg 65%
    19:00 +19°C° 0.1 mm 1 mps 748 mmHg 70%
    20:00 +18°C° 0 mm 1 mps 748 mmHg 73%
    21:00 +16°C° 0 mm 2 mps 749 mmHg 76%
    22:00 +15°C° 0 mm 2 mps 749 mmHg 79%
    23:00 +14°C° 0 mm 2 mps 749 mmHg 80%

    Tomorrow, 21 May, Monday

    Time Temperature Precipitation Wind Pressure Humidity
    00:00 +14°C° 0 mm 2 mps 749 mmHg 82%
    01:00 +13°C° 0 mm 2 mps 749 mmHg 84%
    02:00 +13°C° 0 mm 2 mps 749 mmHg 84%
    03:00 +12°C° 0 mm 2 mps 748 mmHg 85%
    04:00 +10°C° 0 mm 2 mps 748 mmHg 86%
    05:00 +13°C° 0 mm 2 mps 748 mmHg 82%
    06:00 +14°C° 0 mm 2 mps 748 mmHg 77%
    07:00 +16°C° 0 mm 2 mps 748 mmHg 73%
    08:00 +17°C° 0 mm 2 mps 748 mmHg 67%
    09:00 +19°C° 0 mm 2 mps 747 mmHg 62%
    10:00 +20°C° 0 mm 2 mps 747 mmHg 56%
    11:00 +21°C° 0.1 mm 2 mps 747 mmHg 55%
    12:00 +23°C° 0.1 mm 2 mps 747 mmHg 53%
    13:00 +23°C° 0.1 mm 2 mps 746 mmHg 52%
    14:00 +23°C° 0 mm 2 mps 746 mmHg 51%
    15:00 +24°C° 0 mm 2 mps 745 mmHg 51%
    16:00 +24°C° 0 mm 2 mps 745 mmHg 51%
    17:00 +21°C° 0 mm 2 mps 745 mmHg 57%
    18:00 +20°C° 0 mm 2 mps 744 mmHg 64%
    19:00 +18°C° 0 mm 2 mps 744 mmHg 71%
    20:00 +17°C° 0 mm 2 mps 744 mmHg 76%
    21:00 +16°C° 0 mm 2 mps 745 mmHg 81%
    22:00 +14°C° 0 mm 3 mps 745 mmHg 86%
    23:00 +14°C° 0 mm 3 mps 745 mmHg 88%

    Day after tomorrow, 22 May, Tuesday

    Time Temperature Precipitation Wind Pressure Humidity
    00:00 +13°C° 0 mm 3 mps 744 mmHg 90%
    01:00 +13°C° 0 mm 3 mps 744 mmHg 91%
    02:00 +12°C° 0 mm 3 mps 744 mmHg 92%
    03:00 +13°C° 0 mm 2 mps 744 mmHg 93%
    04:00 +13°C° 0 mm 2 mps 744 mmHg 94%
    05:00 +13°C° 0 mm 3 mps 744 mmHg 91%
    06:00 +14°C° 0 mm 3 mps 744 mmHg 88%
    07:00 +17°C° 0 mm 3 mps 744 mmHg 85%
    08:00 +18°C° 0.1 mm 4 mps 744 mmHg 82%
    09:00 +19°C° 0.1 mm 4 mps 744 mmHg 79%
    10:00 +21°C° 0.1 mm 4 mps 744 mmHg 76%
    11:00 +21°C° 0.4 mm 4 mps 744 mmHg 73%
    12:00 +22°C° 0.4 mm 4 mps 744 mmHg 70%
    13:00 +23°C° 0.4 mm 5 mps 744 mmHg 68%
    14:00 +23°C° 0.2 mm 4 mps 744 mmHg 68%
    15:00 +23°C° 0.2 mm 4 mps 743 mmHg 68%
    16:00 +23°C° 0.2 mm 4 mps 743 mmHg 69%
    17:00 +22°C° 0.1 mm 4 mps 743 mmHg 74%
    18:00 +21°C° 0.1 mm 3 mps 743 mmHg 80%
    19:00 +20°C° 0.1 mm 3 mps 744 mmHg 85%
    20:00 +19°C° 0.1 mm 3 mps 744 mmHg 88%
    21:00 +18°C° 0.1 mm 3 mps 744 mmHg 91%
    22:00 +17°C° 0.1 mm 3 mps 744 mmHg 94%
    23:00 +17°C° 0 mm 3 mps 744 mmHg 94%

    23 May, Wednesday

    Time Temperature Precipitation Wind Pressure Humidity
    00:00 +16°C° 0 mm 3 mps 744 mmHg 95%
    01:00 +16°C° 0 mm 2 mps 745 mmHg 95%
    02:00 +15°C° 0 mm 2 mps 745 mmHg 95%
    03:00 +15°C° 0 mm 2 mps 745 mmHg 96%
    04:00 +15°C° 0 mm 2 mps 745 mmHg 96%
    05:00 +16°C° 0 mm 2 mps 745 mmHg 93%
    06:00 +17°C° 0 mm 2 mps 745 mmHg 90%
    07:00 +19°C° 0 mm 2 mps 746 mmHg 87%
    08:00 +20°C° 0.2 mm 2 mps 746 mmHg 81%
    09:00 +21°C° 0.2 mm 2 mps 746 mmHg 76%
    10:00 +24°C° 0.2 mm 2 mps 746 mmHg 71%
    11:00 +25°C° 0.2 mm 2 mps 746 mmHg 67%
    12:00 +26°C° 0.2 mm 2 mps 746 mmHg 63%
    13:00 +26°C° 0.2 mm 2 mps 746 mmHg 59%
    14:00 +26°C° 0.3 mm 2 mps 746 mmHg 59%
    15:00 +27°C° 0.3 mm 2 mps 745 mmHg 60%
    16:00 +27°C° 0.3 mm 2 mps 745 mmHg 60%
    17:00 +25°C° 0.6 mm 2 mps 745 mmHg 67%
    18:00 +24°C° 0.6 mm 2 mps 745 mmHg 73%
    19:00 +21°C° 0.6 mm 2 mps 746 mmHg 80%
    20:00 +20°C° 0.1 mm 2 mps 746 mmHg 83%
    21:00 +19°C° 0.1 mm 2 mps 746 mmHg 86%
    22:00 +19°C° 0.1 mm 1 mps 746 mmHg 89%
    23:00 +19°C° 0 mm 1 mps 746 mmHg 90%

    24 May, Thursday

    Time Temperature Precipitation Wind Pressure Humidity
    00:00 +18°C° 0 mm 1 mps 746 mmHg 91%
    01:00 +18°C° 0 mm 1 mps 746 mmHg 92%
    02:00 +16°C° 0 mm 1 mps 746 mmHg 93%
    03:00 +16°C° 0 mm 1 mps 746 mmHg 93%
    04:00 +16°C° 0 mm 1 mps 746 mmHg 94%
    05:00 +17°C° 0 mm 2 mps 746 mmHg 90%
    06:00 +18°C° 0 mm 2 mps 746 mmHg 87%
    07:00 +20°C° 0 mm 2 mps 747 mmHg 84%
    08:00 +21°C° 0 mm 2 mps 747 mmHg 79%
    09:00 +24°C° 0 mm 2 mps 747 mmHg 73%
    10:00 +25°C° 0 mm 2 mps 747 mmHg 68%
    11:00 +26°C° 0.4 mm 2 mps 747 mmHg 65%
    12:00 +26°C° 0.4 mm 2 mps 746 mmHg 62%
    13:00 +27°C° 0.4 mm 2 mps 746 mmHg 59%
    14:00 +27°C° 0.4 mm 2 mps 746 mmHg 60%
    15:00 +27°C° 0.4 mm 2 mps 746 mmHg 60%
    16:00 +27°C° 0.4 mm 2 mps 746 mmHg 60%
    17:00 +26°C° 0.4 mm 2 mps 746 mmHg 66%
    18:00 +24°C° 0.4 mm 2 mps 746 mmHg 72%
    19:00 +23°C° 0.4 mm 2 mps 746 mmHg 78%
    20:00 +21°C° 0.6 mm 2 mps 746 mmHg 81%
    21:00 +20°C° 0.6 mm 2 mps 746 mmHg 84%
    22:00 +19°C° 0.6 mm 2 mps 746 mmHg 88%
    23:00 +19°C° 0.4 mm 1 mps 746 mmHg 89%

    25 May, Friday

    Time Temperature Precipitation Wind Pressure Humidity
    00:00 +19°C° 0.4 mm 1 mps 746 mmHg 90%
    01:00 +18°C° 0.4 mm 1 mps 746 mmHg 91%
    02:00 +18°C° 0.2 mm 1 mps 746 mmHg 91%
    03:00 +18°C° 0.2 mm 1 mps 746 mmHg 92%
    04:00 +16°C° 0.2 mm 1 mps 746 mmHg 93%
    05:00 +18°C° 0.2 mm 1 mps 746 mmHg 90%
    06:00 +20°C° 0.2 mm 1 mps 746 mmHg 86%
    07:00 +21°C° 0.2 mm 1 mps 746 mmHg 83%
    08:00 +22°C° 0.2 mm 1 mps 746 mmHg 78%
    09:00 +24°C° 0.2 mm 1 mps 746 mmHg 73%
    10:00 +25°C° 0.2 mm 1 mps 746 mmHg 67%
    11:00 +26°C° 0.2 mm 2 mps 746 mmHg 64%
    12:00 +27°C° 0.2 mm 2 mps 746 mmHg 60%
    13:00 +28°C° 0.2 mm 2 mps 746 mmHg 57%
    14:00 +28°C° 0.1 mm 2 mps 746 mmHg 57%
    15:00 +28°C° 0.1 mm 2 mps 746 mmHg 58%
    16:00 +28°C° 0.1 mm 2 mps 745 mmHg 58%
    17:00 +26°C° 0.1 mm 2 mps 745 mmHg 63%
    18:00 +25°C° 0.1 mm 1 mps 745 mmHg 69%
    19:00 +24°C° 0.1 mm 1 mps 745 mmHg 74%
    20:00 +23°C° 0.3 mm 1 mps 746 mmHg 77%
    21:00 +22°C° 0.3 mm 1 mps 746 mmHg 80%
    22:00 +20°C° 0.3 mm 1 mps 746 mmHg 84%
    23:00 +20°C° 0.2 mm 1 mps 746 mmHg 85%
    Show more